Index of /ubuntu/dists

[ICO]NameLast modifiedSizeDescription

[PARENTDIR]Parent Directory  -  
[DIR]trusty/2015-10-07 08:44 -  
[DIR]xenial/2016-04-21 04:43 -  
[DIR]trusty-backports/2017-12-15 06:49 -  
[DIR]bionic/2018-04-26 20:38 -  
[DIR]focal/2020-04-23 14:34 -  
[DIR]trusty-security/2020-05-29 05:06 -  
[DIR]trusty-updates/2020-05-29 05:08 -  
[DIR]trusty-proposed/2020-06-06 03:57 -  
[DIR]impish/2021-10-14 13:35 -  
[DIR]jammy-backports/2021-11-10 14:49 -  
[DIR]jammy/2022-04-21 14:16 -  
[DIR]devel-backports/2022-05-02 18:10 -  
[DIR]kinetic-backports/2022-05-02 18:10 -  
[DIR]devel-security/2022-05-02 19:06 -  
[DIR]kinetic-security/2022-05-02 19:06 -  
[DIR]devel-updates/2022-05-02 19:06 -  
[DIR]kinetic-updates/2022-05-02 19:06 -  
[DIR]xenial-proposed/2022-05-05 06:23 -  
[DIR]impish-backports/2022-05-17 03:52 -  
[DIR]focal-backports/2022-05-17 03:56 -  
[DIR]bionic-backports/2022-05-17 03:59 -  
[DIR]xenial-security/2022-05-17 03:59 -  
[DIR]xenial-backports/2022-05-17 04:01 -  
[DIR]devel/2022-05-17 05:08 -  
[DIR]kinetic/2022-05-17 05:08 -  
[DIR]devel-proposed/2022-05-17 05:09 -  
[DIR]kinetic-proposed/2022-05-17 05:09 -  
[DIR]jammy-security/2022-05-17 05:09 -  
[DIR]jammy-updates/2022-05-17 05:09 -  
[DIR]jammy-proposed/2022-05-17 05:09 -  
[DIR]impish-security/2022-05-17 05:10 -  
[DIR]impish-updates/2022-05-17 05:10 -  
[DIR]impish-proposed/2022-05-17 05:10 -  
[DIR]focal-security/2022-05-17 05:11 -  
[DIR]focal-updates/2022-05-17 05:12 -  
[DIR]focal-proposed/2022-05-17 05:13 -  
[DIR]bionic-security/2022-05-17 05:14 -  
[DIR]bionic-updates/2022-05-17 05:15 -  
[DIR]bionic-proposed/2022-05-17 05:16 -  
[DIR]xenial-updates/2022-05-17 05:17 -  

Apache/2.4.38 (Debian) Server at repos.interior.edu.uy Port 443